| time (UTC) | temp C | wind direction | speed KPH | gust KPH | rain 1hr cm | rain 24hr cm | rain mn cm | humidity % | barometer mb |
| 20260505011538 | 10 | 0 | 0.0 | 0.0 | 0.00 | 0.38 | 0.18 | 70 | 1007.6 |
| 20260505010041 | 11 | 0 | 0.0 | 0.0 | 0.00 | 0.38 | 0.18 | 69 | 1007.3 |
| 20260505004535 | 11 | 0 | 0.0 | 0.0 | 0.00 | 0.61 | 0.18 | 68 | 1007.1 |
| 20260505003042 | 11 | 0 | 0.0 | 0.0 | 0.00 | 0.61 | 0.18 | 67 | 1006.8 |
| 20260505001539 | 11 | 0 | 0.0 | 0.0 | 0.00 | 0.61 | 0.18 | 66 | 1006.5 |
| 20260505000047 | 11 | 0 | 0.0 | 0.0 | 0.00 | 0.61 | 0.18 | 65 | 1006.3 |
| 20260504234536 | 11 | 0 | 0.0 | 0.0 | 0.00 | 0.71 | 0.18 | 64 | 1006.1 |
| 20260504233035 | 12 | 0 | 0.0 | 0.0 | 0.00 | 0.71 | 0.18 | 62 | 1006.0 |
| 20260504231541 | 12 | 0 | 0.0 | 0.0 | 0.00 | 0.71 | 0.18 | 59 | 1005.9 |
| 20260504230041 | 13 | 0 | 0.0 | 0.0 | 0.00 | 0.71 | 0.18 | 58 | 1005.7 |
| 20260504224537 | 13 | 0 | 0.0 | 0.0 | 0.00 | 0.89 | 0.18 | 56 | 1005.6 |
| 20260504223036 | 13 | 0 | 0.0 | 0.0 | 0.00 | 0.89 | 0.18 | 56 | 1005.5 |
| 20260504221546 | 14 | 0 | 0.0 | 0.0 | 0.00 | 0.89 | 0.18 | 53 | 1005.3 |
| 20260504220049 | 14 | 0 | 0.0 | 0.0 | 0.00 | 0.89 | 0.18 | 55 | 1005.2 |
| 20260504214537 | 14 | 0 | 0.0 | 0.0 | 0.00 | 0.99 | 0.18 | 53 | 1005.2 |
| 20260504213051 | 14 | 0 | 0.0 | 0.0 | 0.00 | 0.99 | 0.18 | 54 | 1005.4 |
| 20260504211540 | 15 | 0 | 0.0 | 0.0 | 0.00 | 0.99 | 0.18 | 54 | 1005.4 |
| 20260504210047 | 15 | 0 | 0.0 | 0.0 | 0.00 | 0.99 | 0.18 | 54 | 1005.0 |
| 20260504204544 | 15 | 0 | 0.0 | 0.0 | 0.00 | 1.40 | 0.18 | 57 | 1004.8 |
| 20260504203041 | 15 | 0 | 0.0 | 0.0 | 0.00 | 1.40 | 0.18 | 55 | 1004.7 |
| 20260504201535 | 16 | 0 | 0.0 | 0.0 | 0.00 | 1.40 | 0.18 | 51 | 1004.2 |
| 20260504200036 | 16 | 0 | 0.0 | 0.0 | 0.00 | 1.40 | 0.18 | 48 | 1003.9 |
| 20260504194542 | 17 | 0 | 0.0 | 0.0 | 0.00 | 2.36 | 0.18 | 45 | 1003.9 |
| 20260504193055 | 17 | 0 | 0.0 | 0.0 | 0.00 | 2.36 | 0.18 | 43 | 1003.9 |
| 20260504191542 | 17 | 0 | 0.0 | 0.0 | 0.00 | 2.36 | 0.18 | 44 | 1003.9 |
| 20260504190042 | 16 | 0 | 0.0 | 0.0 | 0.00 | 2.36 | 0.18 | 42 | 1003.9 |
| 20260504184535 | 16 | 0 | 0.0 | 0.0 | 0.00 | 2.79 | 0.18 | 40 | 1003.8 |
| 20260504183056 | 16 | 0 | 0.0 | 0.0 | 0.00 | 2.79 | 0.18 | 38 | 1003.8 |
| 20260504181544 | 16 | 0 | 0.0 | 0.0 | 0.00 | 2.79 | 0.18 | 38 | 1004.1 |
| 20260504180112 | 16 | 0 | 0.0 | 0.0 | 0.00 | 2.79 | 0.18 | 41 | 1004.1 |
| 20260504174537 | 16 | 0 | 0.0 | 0.0 | 0.00 | 3.17 | 0.18 | 42 | 1004.0 |
| 20260504173035 | 16 | 0 | 0.0 | 0.0 | 0.00 | 3.17 | 0.18 | 43 | 1003.9 |
| 20260504171548 | 15 | 0 | 0.0 | 0.0 | 0.00 | 3.17 | 0.18 | 39 | 1004.0 |
| 20260504081535 | 5 | 0 | 0.0 | 0.0 | 0.00 | 3.68 | 0.18 | 93 | 997.9 |
| 20260504044538 | 2 | 0 | 0.0 | 0.0 | 0.03 | 3.58 | 0.08 | 94 | 994.2 |
| 20260504043043 | 2 | 0 | 0.0 | 0.0 | 0.05 | 3.58 | 0.08 | 94 | 994.1 |
| 20260504041536 | 2 | 0 | 0.0 | 0.0 | 0.05 | 3.58 | 0.08 | 94 | 993.7 |
| 20260504040052 | 2 | 0 | 0.0 | 0.0 | 0.05 | 3.56 | 0.05 | 94 | 993.3 |
| 20260504034547 | 2 | 0 | 0.0 | 0.0 | 0.05 | 3.56 | 0.05 | 94 | 992.9 |
| 20260504033040 | 2 | 0 | 0.0 | 0.0 | 0.03 | 3.53 | 0.03 | 95 | 992.5 |
| 20260504031536 | 2 | 0 | 0.0 | 0.0 | 0.03 | 3.53 | 0.03 | 94 | 992.3 |
| 20260504030042 | 2 | 0 | 0.0 | 0.0 | 0.03 | 3.51 | 0.00 | 94 | 991.8 |
| 20260504024541 | 2 | 0 | 0.0 | 0.0 | 0.03 | 3.51 | 3.51 | 94 | 991.4 |
| 20260504023038 | 2 | 0 | 0.0 | 0.0 | 0.05 | 3.51 | 3.51 | 95 | 990.8 |
| 20260504021537 | 2 | 0 | 0.0 | 0.0 | 0.08 | 3.51 | 3.51 | 95 | 990.7 |
| 20260504020041 | 2 | 0 | 0.0 | 0.0 | 0.15 | 3.48 | 3.48 | 95 | 990.1 |
| 20260504014538 | 2 | 0 | 0.0 | 0.0 | 0.25 | 3.48 | 3.48 | 95 | 989.8 |
| 20260504013036 | 1 | 0 | 0.0 | 0.0 | 0.30 | 3.45 | 3.45 | 95 | 989.3 |